INNOSAT 3 (RS92S0)

Last updated on Thu Oct 30 2025 00:03:11 GMT+0000 (Coordinated Universal Time)

1 64894U 25155U 25302.48329701 .00029837 00000+0 11209-2 0 9998 2 64894 97.4270 266.7647 0003454 312.2878 47.8068 15.27128013 45560
UTC large
Height (km)
Speed (km/s)
/
Latitude / Longitude
Inclination (degrees)
Orbital Period (minutes)
Azimuth
Elevation
Range (km)
Doppler Factor

Next 0 passes for location: London (51.5072 / 0.1276)

Sorry there are no passes over London.